Oakland, CA

11:54 PM PST on December 08, 2019 (GMT -0800)
Metro Oakland International

Weather History for KOAK - October, 2019

Change the Weather History Date:

Thursday, October 3, 2019

  Actual Average Record
Temperature  
Mean Temperature 58 °F 62 °F  
Max Temperature 68 °F 72 °F 95 °F (1985)
Min Temperature 48 °F 53 °F 45 °F (1953)
Degree Days  
Heating Degree Days 7 3  
Month to date heating degree days 16 9  
Since 1 July heating degree days 46 209  
Cooling Degree Days 0 1  
Month to date cooling degree days 0 3  
Year to date cooling degree days 364 128  
Growing Degree Days 8 (Base 50)    
Moisture  
Dew Point 48 °F    
Average Humidity 69    
Maximum Humidity 86    
Minimum Humidity 52    
Precipitation  
Precipitation 0.00 in 0.01 in 0.22 in (2008)
Month to date precipitation 0.00 0.04  
Year to date precipitation 15.94 13.54  
Sea Level Pressure  
Sea Level Pressure 30.00 in    
Wind  
Wind Speed 8 mph (West)    
Max Wind Speed 20 mph    
Max Gust Speed 25 mph    
Visibility 10 miles    
Events      
T = Trace of Precipitation, MM = Missing Value Source: NWS Daily Summary

Daily Weather History Graph

Daily Weather History Graph

Search for Another Location

Airport or City:

Astronomy

Oct. 03, 2019 Rise Set
Actual Time 7:06 AM PDT 6:49 PM PDT
Civil Twilight 6:39 AM PDT 7:15 PM PDT
Nautical Twilight 6:09 AM PDT 7:45 PM PDT
Astronomical Twilight 5:38 AM PDT 8:16 PM PDT
Moon 12:37 PM PDT (10/3) 10:38 PM PDT (10/3)
Length of Visible Light 12h 35m
Length of Day
11h 42m
Waxing Crescent, 31% of the Moon is Illuminated
Oct 3
Waxing Crescent
Oct 5
First Quarter
Oct 13
Full
Oct 21
Last Quarter
Oct 27
New

Hourly Weather History & Observations

Time (PDT) Temp. Dew Point Humidity Pressure Visibility Wind Dir Wind Speed Gust Speed Precip Events Conditions
12:53 AM 57.9 °F 48.9 °F 72% 29.99 in 10.0 mi SW 6.9 mph - N/A   Clear
1:53 AM 57.9 °F 48.9 °F 72% 29.99 in 10.0 mi SSW 9.2 mph - N/A   Clear
2:53 AM 57.9 °F 48.0 °F 70% 29.98 in 10.0 mi WSW 9.2 mph - N/A   Clear
3:53 AM 55.0 °F 46.9 °F 74% 29.97 in 10.0 mi NW 6.9 mph - N/A   Clear
4:53 AM 50.0 °F 45.0 °F 83% 29.98 in 10.0 mi NE 3.5 mph - N/A   Clear
5:53 AM 51.1 °F 46.0 °F 83% 29.99 in 10.0 mi NNE 4.6 mph - N/A   Clear
6:53 AM 50.0 °F 46.0 °F 86% 29.99 in 10.0 mi NNE 3.5 mph - N/A   Partly Cloudy
7:53 AM 51.1 °F 46.9 °F 86% 30.01 in 10.0 mi East 4.6 mph - N/A   Partly Cloudy
8:53 AM 59.0 °F 50.0 °F 72% 30.02 in 10.0 mi Variable 3.5 mph - N/A   Partly Cloudy
9:53 AM 62.1 °F 50.0 °F 65% 30.02 in 10.0 mi SW 11.5 mph - N/A   Partly Cloudy
10:53 AM 62.1 °F 50.0 °F 65% 30.02 in 10.0 mi South 8.1 mph - N/A   Partly Cloudy
11:53 AM 64.0 °F 51.1 °F 63% 30.01 in 10.0 mi West 4.6 mph - N/A   Clear
12:53 PM 66.9 °F 48.9 °F 52% 30.00 in 10.0 mi WSW 8.1 mph - N/A   Clear
1:53 PM 66.9 °F 48.9 °F 52% 30.00 in 10.0 mi West 15.0 mph - N/A   Clear
2:53 PM 66.9 °F 50.0 °F 54% 29.99 in 10.0 mi WSW 12.7 mph - N/A   Clear
3:53 PM 66.0 °F 50.0 °F 56% 29.99 in 10.0 mi WSW 16.1 mph - N/A   Partly Cloudy
4:53 PM 66.0 °F 50.0 °F 56% 29.99 in 10.0 mi West 16.1 mph - N/A   Partly Cloudy
5:53 PM 63.0 °F 48.9 °F 60% 29.98 in 10.0 mi West 15.0 mph - N/A   Partly Cloudy
6:53 PM 62.1 °F 48.9 °F 62% 29.99 in 10.0 mi West 15.0 mph - N/A   Partly Cloudy
7:53 PM 61.0 °F 48.9 °F 64% 30.00 in 10.0 mi WSW 8.1 mph - N/A   Partly Cloudy
8:53 PM 57.0 °F 46.0 °F 67% 30.02 in 10.0 mi East 5.8 mph - N/A   Clear
9:53 PM 54.0 °F 46.0 °F 75% 30.04 in 10.0 mi Calm Calm - N/A   Clear
10:53 PM 55.0 °F 46.9 °F 74% 30.06 in 10.0 mi North 3.5 mph - N/A   Clear
11:53 PM 59.0 °F 48.0 °F 67% 30.06 in 10.0 mi West 10.4 mph - N/A   Clear